Location: La Comballaz
(46.3780°N, 7.0817°E)
Time: 07:24:41
(UTC+00:00)

Envisat - Visible Passes

Search period start: 07 December 2021 00:00
Search period end: 17 December 2021 00:00
Orbit: 764 x 766 km, 98.2° (Epoch: 06 December)

Date Brightness Start Highest point End Pass type
(mag) Time Alt. Az. Time Alt. Az. Time Alt. Az.
07 Dec 4.9 03:42:51 10° NE 03:47:09 27° E 03:51:26 10° SSE visible
07 Dec 3.3 05:21:32 10° N 05:26:19 42° WNW 05:31:04 10° SW visible
07 Dec 5.5 16:39:40 10° SSW 16:43:47 25° W 16:47:56 10° NW visible
08 Dec 5.9 03:07:38 10° ENE 03:09:52 13° E 03:12:05 10° ESE visible
08 Dec 2.9 04:44:27 10° NNE 04:49:34 87° WNW 04:54:39 10° SSW visible
08 Dec 4.6 06:25:18 10° NNW 06:27:50 14° WNW 06:30:22 10° W visible
09 Dec 4.0 04:07:45 10° NNE 04:12:38 45° E 04:17:29 10° S visible
09 Dec 3.9 05:47:14 10° N 05:51:25 26° WNW 05:55:36 10° WSW visible
09 Dec 6.0 17:06:35 10° WSW 17:09:23 15° W 17:12:11 10° NW visible
10 Dec 5.3 03:31:36 10° NE 03:35:30 22° E 03:39:22 10° SE visible
10 Dec 3.1 05:09:52 10° N 05:14:49 52° WNW 05:19:44 10° SW visible
10 Dec 5.1 16:27:40 10° SSW 16:32:08 31° W 16:36:37 10° NNW visible
11 Dec 3.1 04:32:54 10° NNE 04:38:01 76° ESE 04:43:05 10° S visible
11 Dec 4.4 06:13:14 10° NNW 06:16:26 17° WNW 06:19:37 10° W visible
12 Dec 4.4 03:56:20 10° NNE 04:01:01 36° E 04:05:39 10° SSE visible
12 Dec 3.6 05:35:28 10° N 05:39:57 32° WNW 05:44:26 10° SW visible
12 Dec 5.8 16:54:11 10° SW 16:57:41 19° W 17:01:12 10° NW visible
13 Dec 5.6 03:20:28 10° NE 03:23:48 17° E 03:27:08 10° SE visible
13 Dec 2.9 04:58:14 10° N 05:03:17 66° WNW 05:08:19 10° SSW visible
13 Dec 4.7 16:15:47 10° SSW 16:20:29 38° W 16:25:14 10° NNW visible
14 Dec 3.4 04:21:23 10° NNE 04:26:26 61° E 04:31:27 10° S visible
14 Dec 4.2 06:01:19 10° NNW 06:05:00 21° WNW 06:08:42 10° WSW visible
14 Dec 6.3 17:22:18 10° W 17:23:20 11° W 17:24:22 10° WNW visible
15 Dec 4.8 03:44:58 10° NE 03:49:22 29° E 03:53:44 10° SSE visible
15 Dec 3.4 05:23:45 10° N 05:28:29 40° WNW 05:33:11 10° SW visible
15 Dec 5.6 16:42:00 10° SW 16:46:00 23° W 16:50:01 10° NW visible
16 Dec 5.8 03:09:33 10° ENE 03:12:06 14° E 03:14:38 10° ESE visible
16 Dec 2.8 04:46:38 10° NNE 04:51:45 82° WNW 04:56:50 10° SSW visible
16 Dec 4.6 06:27:40 10° NNW 06:29:58 13° NW 06:32:15 10° W visible
